When you browse on this site, cookies collect data to enhance your experience and personalize the content and advertising you see.
Visit our Privacy Policy to learn more. By continuing to use the site, you agree to this use of cookies and data.
  • In Latvia
  • List of Countries
  • For 7 days
  • Water Temperature
  • Satellite Maps
  • Weather Map
  • Weather Widgets
  • user-avatar
    Login

    Hourly Weather Tibissa

    Today, 22 May, Wednesday

    Time Temperature Precipitation Wind Pressure Humidity
    00:00 +16°C° 0 mm 1 mps 686 mmHg 61%
    01:00 +16°C° 0 mm 1 mps 686 mmHg 61%
    02:00 +15°C° 0 mm 1 mps 686 mmHg 63%
    03:00 +15°C° 0 mm 1 mps 685 mmHg 65%
    04:00 +15°C° 0 mm 1 mps 685 mmHg 66%
    05:00 +15°C° 0.4 mm 1 mps 685 mmHg 67%
    06:00 +15°C° 0.4 mm 1 mps 685 mmHg 68%
    07:00 +15°C° 0.4 mm 1 mps 685 mmHg 70%
    08:00 +16°C° 0.5 mm 1 mps 686 mmHg 67%
    09:00 +16°C° 0.5 mm 1 mps 686 mmHg 65%
    10:00 +18°C° 0.5 mm 1 mps 686 mmHg 63%
    11:00 +19°C° 0.2 mm 1 mps 686 mmHg 57%
    12:00 +20°C° 0.2 mm 1 mps 686 mmHg 50%
    13:00 +21°C° 0.2 mm 1 mps 686 mmHg 44%
    14:00 +22°C° 0.1 mm 1 mps 686 mmHg 43%
    15:00 +21°C° 0.1 mm 2 mps 686 mmHg 41%
    16:00 +21°C° 0.1 mm 2 mps 686 mmHg 40%
    17:00 +20°C° 1.3 mm 2 mps 686 mmHg 49%
    18:00 +19°C° 1.3 mm 3 mps 686 mmHg 57%
    19:00 +17°C° 1.3 mm 3 mps 686 mmHg 66%
    20:00 +17°C° 0.6 mm 2 mps 686 mmHg 69%
    21:00 +17°C° 0.6 mm 2 mps 686 mmHg 72%
    22:00 +16°C° 0.6 mm 1 mps 687 mmHg 75%
    23:00 +16°C° 0.8 mm 1 mps 687 mmHg 78%

    Tomorrow, 23 May, Thursday

    Time Temperature Precipitation Wind Pressure Humidity
    00:00 +15°C° 0.8 mm 1 mps 687 mmHg 81%
    01:00 +14°C° 0.8 mm 1 mps 686 mmHg 84%
    02:00 +14°C° 0 mm 1 mps 686 mmHg 87%
    03:00 +14°C° 0 mm 1 mps 686 mmHg 89%
    04:00 +12°C° 0 mm 0 mps 686 mmHg 91%
    05:00 +13°C° 0 mm 0 mps 686 mmHg 88%
    06:00 +14°C° 0 mm 1 mps 686 mmHg 84%
    07:00 +15°C° 0 mm 1 mps 687 mmHg 81%
    08:00 +16°C° 0 mm 1 mps 687 mmHg 71%
    09:00 +18°C° 0 mm 2 mps 687 mmHg 61%
    10:00 +19°C° 0 mm 2 mps 688 mmHg 50%
    11:00 +20°C° 0 mm 2 mps 688 mmHg 44%
    12:00 +21°C° 0 mm 3 mps 688 mmHg 37%
    13:00 +22°C° 0 mm 3 mps 688 mmHg 31%
    14:00 +24°C° 0 mm 3 mps 688 mmHg 29%
    15:00 +24°C° 0 mm 3 mps 687 mmHg 27%
    16:00 +25°C° 0 mm 3 mps 687 mmHg 26%
    17:00 +25°C° 0 mm 3 mps 687 mmHg 27%
    18:00 +24°C° 0 mm 3 mps 687 mmHg 29%
    19:00 +24°C° 0 mm 2 mps 687 mmHg 30%
    20:00 +23°C° 0 mm 2 mps 687 mmHg 34%
    21:00 +21°C° 0 mm 2 mps 687 mmHg 38%
    22:00 +20°C° 0 mm 2 mps 687 mmHg 42%
    23:00 +20°C° 0 mm 2 mps 687 mmHg 46%

    Day after tomorrow, 24 May, Friday

    Time Temperature Precipitation Wind Pressure Humidity
    00:00 +19°C° 0 mm 2 mps 687 mmHg 50%
    01:00 +19°C° 0 mm 3 mps 686 mmHg 54%
    02:00 +18°C° 0 mm 3 mps 686 mmHg 56%
    03:00 +18°C° 0 mm 3 mps 686 mmHg 59%
    04:00 +17°C° 0 mm 3 mps 685 mmHg 62%
    05:00 +17°C° 0 mm 4 mps 685 mmHg 59%
    06:00 +18°C° 0 mm 4 mps 686 mmHg 57%
    07:00 +17°C° 0 mm 5 mps 686 mmHg 54%
    08:00 +20°C° 0 mm 5 mps 686 mmHg 49%
    09:00 +22°C° 0 mm 6 mps 686 mmHg 44%
    10:00 +24°C° 0 mm 7 mps 686 mmHg 39%
    11:00 +24°C° 0.1 mm 7 mps 686 mmHg 38%
    12:00 +26°C° 0.1 mm 8 mps 686 mmHg 37%
    13:00 +27°C° 0.1 mm 9 mps 685 mmHg 36%
    14:00 +27°C° 0 mm 9 mps 685 mmHg 36%
    15:00 +26°C° 0 mm 9 mps 684 mmHg 37%
    16:00 +26°C° 0 mm 9 mps 684 mmHg 37%
    17:00 +26°C° 0 mm 9 mps 684 mmHg 39%
    18:00 +24°C° 0 mm 9 mps 683 mmHg 40%
    19:00 +23°C° 0 mm 9 mps 683 mmHg 42%
    20:00 +23°C° 0 mm 7 mps 683 mmHg 43%
    21:00 +22°C° 0 mm 6 mps 683 mmHg 43%
    22:00 +21°C° 0 mm 5 mps 683 mmHg 44%
    23:00 +21°C° 0.5 mm 6 mps 683 mmHg 47%

    25 May, Saturday

    Time Temperature Precipitation Wind Pressure Humidity
    00:00 +21°C° 0.5 mm 6 mps 683 mmHg 49%
    01:00 +20°C° 0.5 mm 6 mps 683 mmHg 52%
    02:00 +20°C° 1 mm 5 mps 682 mmHg 57%
    03:00 +19°C° 1 mm 4 mps 682 mmHg 62%
    04:00 +19°C° 1 mm 3 mps 681 mmHg 67%
    05:00 +18°C° 0.8 mm 3 mps 681 mmHg 68%
    06:00 +18°C° 0.8 mm 2 mps 681 mmHg 69%
    07:00 +18°C° 0.8 mm 2 mps 681 mmHg 70%
    08:00 +18°C° 0.7 mm 3 mps 681 mmHg 68%
    09:00 +18°C° 0.7 mm 3 mps 682 mmHg 65%
    10:00 +18°C° 0.7 mm 4 mps 682 mmHg 63%
    11:00 +19°C° 1.3 mm 5 mps 682 mmHg 63%
    12:00 +18°C° 1.3 mm 7 mps 681 mmHg 64%
    13:00 +20°C° 1.3 mm 8 mps 681 mmHg 65%
    14:00 +20°C° 0.3 mm 7 mps 681 mmHg 61%
    15:00 +21°C° 0.3 mm 7 mps 681 mmHg 58%
    16:00 +22°C° 0.3 mm 6 mps 681 mmHg 54%
    17:00 +21°C° 0.9 mm 5 mps 681 mmHg 59%
    18:00 +20°C° 0.9 mm 4 mps 681 mmHg 63%
    19:00 +19°C° 0.9 mm 3 mps 681 mmHg 68%
    20:00 +18°C° 1.4 mm 3 mps 681 mmHg 72%
    21:00 +18°C° 1.4 mm 2 mps 682 mmHg 75%
    22:00 +18°C° 1.4 mm 1 mps 682 mmHg 79%
    23:00 +17°C° 0.2 mm 2 mps 681 mmHg 83%

    26 May, Sunday

    Time Temperature Precipitation Wind Pressure Humidity
    00:00 +16°C° 0.2 mm 2 mps 681 mmHg 86%
    01:00 +15°C° 0.2 mm 2 mps 680 mmHg 89%
    02:00 +15°C° 0.9 mm 2 mps 680 mmHg 90%
    03:00 +15°C° 0.9 mm 2 mps 680 mmHg 90%
    04:00 +15°C° 0.9 mm 2 mps 680 mmHg 90%
    05:00 +14°C° 0.1 mm 3 mps 680 mmHg 89%
    06:00 +14°C° 0.1 mm 3 mps 680 mmHg 88%
    07:00 +14°C° 0.1 mm 4 mps 680 mmHg 87%
    08:00 +15°C° 0 mm 4 mps 680 mmHg 83%
    09:00 +15°C° 0 mm 5 mps 680 mmHg 78%
    10:00 +16°C° 0 mm 5 mps 681 mmHg 73%
    11:00 +16°C° 0 mm 6 mps 681 mmHg 71%
    12:00 +17°C° 0 mm 6 mps 680 mmHg 69%
    13:00 +17°C° 0 mm 6 mps 680 mmHg 67%
    14:00 +17°C° 0 mm 6 mps 680 mmHg 67%
    15:00 +16°C° 0 mm 6 mps 680 mmHg 67%
    16:00 +16°C° 0 mm 6 mps 680 mmHg 67%
    17:00 +16°C° 0 mm 6 mps 680 mmHg 69%
    18:00 +15°C° 0 mm 6 mps 680 mmHg 72%
    19:00 +15°C° 0 mm 6 mps 680 mmHg 74%
    20:00 +14°C° 0 mm 6 mps 681 mmHg 76%
    21:00 +13°C° 0 mm 6 mps 681 mmHg 78%
    22:00 +13°C° 0 mm 6 mps 681 mmHg 81%
    23:00 +13°C° 0 mm 6 mps 681 mmHg 83%

    27 May, Monday

    Time Temperature Precipitation Wind Pressure Humidity
    00:00 +11°C° 0 mm 6 mps 681 mmHg 84%
    01:00 +12°C° 0 mm 5 mps 681 mmHg 86%
    02:00 +11°C° 0 mm 6 mps 681 mmHg 86%
    03:00 +11°C° 0 mm 6 mps 681 mmHg 86%
    04:00 +11°C° 0 mm 7 mps 681 mmHg 86%
    05:00 +11°C° 0.1 mm 7 mps 681 mmHg 84%
    06:00 +11°C° 0.1 mm 7 mps 681 mmHg 83%
    07:00 +11°C° 0.1 mm 8 mps 681 mmHg 81%
    08:00 +12°C° 0 mm 8 mps 682 mmHg 76%
    09:00 +13°C° 0 mm 8 mps 682 mmHg 71%
    10:00 +15°C° 0 mm 8 mps 682 mmHg 65%
    11:00 +15°C° 0 mm 8 mps 682 mmHg 63%
    12:00 +16°C° 0 mm 9 mps 682 mmHg 61%
    13:00 +17°C° 0 mm 9 mps 683 mmHg 59%
    14:00 +17°C° 0.1 mm 9 mps 682 mmHg 61%
    15:00 +17°C° 0.1 mm 9 mps 682 mmHg 62%
    16:00 +17°C° 0.1 mm 10 mps 682 mmHg 64%
    17:00 +16°C° 0 mm 9 mps 682 mmHg 66%
    18:00 +16°C° 0 mm 9 mps 683 mmHg 67%
    19:00 +16°C° 0 mm 8 mps 683 mmHg 69%
    20:00 +15°C° 0 mm 8 mps 683 mmHg 73%
    21:00 +14°C° 0 mm 7 mps 683 mmHg 77%
    22:00 +12°C° 0 mm 7 mps 684 mmHg 80%
    23:00 +12°C° 0 mm 7 mps 684 mmHg 81%
    Show more